DC4AT Weather Reports


Display with metric or nautical units.
time (UTC)temp
F
wind
direction
speed
MPH
gust
MPH
rain 1hr
in
rain 24hr
in
rain mn
in
humidity
%
barometer
mb
20260903062716 59 73 2.0 5.0 0.00 0.00 0.00 82 1018.2
20260903061716 58 63 2.0 7.0 0.00 0.00 0.00 82 1018.4
20260903060716 58 42 1.0 4.0 0.00 0.00 0.00 82 1018.4
20260903055716 58 73 1.0 4.0 0.00 0.00 0.00 83 1018.4
20260903054716 57 65 1.0 3.0 0.00 0.00 0.00 83 1018.4
20260903053716 57 88 2.0 5.0 0.00 0.00 0.00 84 1018.5
20260903052716 57 61 1.0 5.0 0.00 0.00 0.00 84 1019.0
20260903051716 57 58 1.0 2.0 0.00 0.00 0.00 84 1018.5
20260903050716 57 74 0.0 4.0 0.00 0.00 0.00 84 1018.7
20260903045716 57 17 0.0 3.0 0.00 0.00 0.00 85 1018.7
20260903044716 56 58 0.0 4.0 0.00 0.00 0.00 85 1018.7
20260903043716 56 102 0.0 2.0 0.00 0.00 0.00 85 1019.0
20260903042716 56 131 0.0 3.0 0.00 0.00 0.00 85 1019.0
20260903041716 56 87 1.0 5.0 0.00 0.00 0.00 85 1018.8
20260903040716 56 80 0.0 1.0 0.00 0.00 0.00 85 1018.8
20260903035716 56 78 1.0 4.0 0.00 0.00 0.00 85 1018.8
20260903034716 56 49 1.0 2.0 0.00 0.00 0.00 86 1018.8
20260903033716 56 71 1.0 6.0 0.00 0.00 0.00 86 1019.0
20260903032716 55 78 1.0 7.0 0.00 0.00 0.00 86 1019.0
20260903031716 55 79 0.0 4.0 0.00 0.00 0.00 86 1019.0
20260903030716 55 59 0.0 2.0 0.00 0.00 0.00 86 1019.0
20260903025716 55 54 0.0 2.0 0.00 0.00 0.00 86 1019.1
20260903024716 55 5 0.0 0.0 0.00 0.00 0.00 86 1019.4
20260903023716 54 5 0.0 0.0 0.00 0.00 0.00 86 1019.4
20260903022716 54 96 0.0 1.0 0.00 0.00 0.00 86 1019.6
20260903021716 55 116 0.0 0.0 0.00 0.00 0.00 86 1019.6
20260903020716 55 120 0.0 0.0 0.00 0.00 0.00 86 1019.7
20260903015717 55 88 0.0 1.0 0.00 0.00 0.00 86 1019.7
20260903014716 55 117 0.0 0.0 0.00 0.00 0.00 86 1019.6
20260903013716 54 117 0.0 0.0 0.00 0.00 0.00 86 1019.6
20260903012717 55 117 0.0 0.0 0.00 0.00 0.00 86 1019.8
20260903011717 55 117 0.0 2.0 0.00 0.00 0.00 86 1019.9
20260903010717 56 117 0.0 0.0 0.00 0.00 0.00 86 1019.8
20260903005717 56 117 1.0 2.0 0.00 0.00 0.00 86 1019.8
20260903004717 56 143 0.0 0.0 0.00 0.00 0.00 86 1019.9
20260903003717 56 143 0.0 0.0 0.00 0.00 0.00 86 1019.9
20260903002717 56 143 0.0 0.0 0.00 0.00 0.00 86 1019.9
20260903001717 56 143 0.0 0.0 0.00 0.00 0.00 86 1020.0
20260903000717 56 143 0.0 1.0 0.00 0.00 0.00 86 1020.2
20260902235717 56 138 0.0 0.0 0.00 0.00 0.00 86 1020.2
20260902234717 56 138 0.0 0.0 0.00 0.00 0.00 86 1020.3
20260902233717 56 65 0.0 3.0 0.00 0.00 0.00 86 1020.4
20260902232717 56 55 0.0 1.0 0.00 0.00 0.00 86 1020.4
20260902231717 56 54 0.0 1.0 0.00 0.00 0.00 85 1020.5
20260902230717 56 53 0.0 1.0 0.00 0.00 0.00 85 1020.5
20260902225717 57 53 0.0 3.0 0.00 0.00 0.00 85 1020.5
20260902224717 57 90 0.0 0.0 0.00 0.00 0.00 85 1020.6
20260902223717 57 148 0.0 0.0 0.00 0.00 0.00 84 1020.5
20260902222717 57 163 0.0 0.0 0.00 0.00 0.00 84 1020.5
20260902221717 58 163 0.0 0.0 0.00 0.00 0.00 84 1020.6
20260902220717 58 163 0.0 0.0 0.00 0.00 0.00 84 1020.5
20260902215717 58 163 0.0 0.0 0.00 0.00 0.00 83 1020.6
20260902214717 58 163 0.0 0.0 0.00 0.00 0.00 83 1020.5
20260902213717 57 163 0.0 0.0 0.00 0.00 0.00 83 1020.6
20260902212717 57 163 0.0 0.0 0.00 0.00 0.00 83 1020.6
20260902211717 57 163 0.0 0.0 0.00 0.00 0.00 82 1020.6
20260902210717 58 163 0.0 0.0 0.00 0.00 0.00 82 1020.6
20260902205717 58 163 0.0 0.0 0.00 0.00 0.00 81 1020.6
20260902204717 58 163 0.0 0.0 0.00 0.00 0.00 82 1020.6
20260902203717 58 163 0.0 0.0 0.00 0.00 0.00 81 1020.6
20260902202717 58 163 0.0 0.0 0.00 0.00 0.00 80 1020.4
20260902201717 58 163 0.0 0.0 0.00 0.00 0.00 80 1020.4
20260902200717 59 163 0.0 0.0 0.00 0.00 0.00 79 1020.4
20260902195717 59 163 0.0 0.0 0.00 0.00 0.00 78 1020.5
20260902194717 59 163 0.0 0.0 0.00 0.00 0.00 79 1020.5
20260902193717 59 232 0.0 0.0 0.00 0.00 0.00 78 1020.5
20260902192717 60 232 0.0 0.0 0.00 0.00 0.00 78 1020.5
20260902191717 60 232 0.0 0.0 0.00 0.00 0.00 77 1020.4
20260902190717 61 233 0.0 0.0 0.00 0.00 0.00 75 1020.3
20260902185717 62 233 0.0 0.0 0.00 0.00 0.00 73 1020.2
20260902184717 62 229 1.0 7.0 0.00 0.00 0.00 72 1020.2
20260902183717 62 254 0.0 0.0 0.00 0.00 0.00 72 1020.1
20260902182717 63 256 1.0 4.0 0.00 0.00 0.00 72 1020.0
20260902181717 63 169 0.0 1.0 0.00 0.00 0.00 70 1019.9
20260902180717 64 268 0.0 0.0 0.00 0.00 0.00 68 1019.7
20260902175718 65 268 0.0 0.0 0.00 0.00 0.00 65 1019.6
20260902174718 66 268 0.0 1.0 0.00 0.00 0.00 64 1019.6
20260902173718 67 268 1.0 3.0 0.00 0.00 0.00 63 1019.6
20260902172718 67 259 1.0 3.0 0.00 0.00 0.00 63 1019.6
20260902171718 67 249 3.0 5.0 0.00 0.00 0.00 62 1019.6
20260902170718 68 229 4.0 8.0 0.00 0.00 0.00 60 1019.6
20260902165718 68 247 6.0 10.0 0.00 0.00 0.00 59 1019.6
20260902164718 68 246 7.0 10.0 0.00 0.00 0.00 59 1019.6
20260902163718 68 231 5.0 12.0 0.00 0.00 0.00 59 1019.6
20260902162718 69 267 6.0 12.0 0.00 0.01 0.00 57 1019.6
20260902161718 69 213 6.0 10.0 0.00 0.01 0.00 56 1019.7
20260902160718 69 243 4.0 11.0 0.00 0.01 0.00 57 1019.6
20260902155718 69 261 5.0 7.0 0.00 0.01 0.00 58 1019.7
20260902154718 69 248 6.0 11.0 0.00 0.01 0.00 57 1019.7
20260902153718 69 278 7.0 13.0 0.00 0.01 0.00 56 1019.7
20260902152718 70 263 4.0 6.0 0.00 0.02 0.00 57 1019.6
20260902151718 70 292 6.0 8.0 0.00 0.02 0.00 56 1019.7
20260902150718 70 273 6.0 14.0 0.00 0.02 0.00 55 1019.7
20260902145718 70 259 6.0 12.0 0.00 0.02 0.00 56 1019.8
20260902144718 70 238 5.0 12.0 0.00 0.02 0.00 57 1019.8
20260902143718 70 231 2.0 7.0 0.00 0.02 0.00 61 1019.9
20260902142718 70 291 5.0 8.0 0.00 0.02 0.00 58 1019.9
20260902141718 70 232 5.0 9.0 0.00 0.02 0.00 61 1019.9
20260902140718 69 279 4.0 8.0 0.00 0.02 0.00 64 1019.8
20260902135718 69 259 4.0 11.0 0.00 0.02 0.00 65 1019.9
20260902134718 68 270 4.0 9.0 0.00 0.02 0.00 66 1019.9
20260902133718 67 290 3.0 8.0 0.00 0.02 0.00 71 1019.8
20260902132718 67 261 5.0 12.0 0.00 0.02 0.00 71 1019.9
20260902131718 67 244 3.0 5.0 0.00 0.02 0.00 72 1019.8
20260902130718 67 315 3.0 6.0 0.00 0.02 0.00 75 1019.9
20260902125718 67 263 4.0 6.0 0.00 0.02 0.00 74 1019.8
20260902124718 67 313 0.0 4.0 0.00 0.02 0.00 72 1019.8
20260902123718 67 269 1.0 1.0 0.00 0.02 0.00 72 1019.8
20260902122718 67 267 3.0 6.0 0.00 0.02 0.00 72 1019.9
20260902121718 67 263 2.0 4.0 0.00 0.02 0.00 73 1020.0
20260902120718 66 266 3.0 6.0 0.00 0.02 0.00 74 1020.0
20260902115718 66 279 3.0 8.0 0.00 0.02 0.00 74 1020.1
20260902114718 66 293 4.0 6.0 0.00 0.02 0.00 74 1020.1
20260902113718 66 218 1.0 10.0 0.00 0.02 0.00 76 1020.1
20260902112718 66 292 1.0 1.0 0.00 0.02 0.00 79 1020.1
20260902111718 65 295 0.0 2.0 0.00 0.02 0.00 82 1020.2
20260902110718 65 299 1.0 1.0 0.00 0.02 0.00 82 1020.3
20260902105718 65 299 1.0 3.0 0.00 0.02 0.00 82 1020.4
20260902104718 64 300 0.0 3.0 0.00 0.02 0.00 82 1020.4
20260902103719 64 61 0.0 0.0 0.00 0.02 0.00 83 1020.5
20260902102719 64 61 0.0 0.0 0.00 0.02 0.00 83 1020.5
20260902101719 64 63 0.0 0.0 0.00 0.02 0.00 84 1020.6
20260902100719 63 64 0.0 0.0 0.00 0.02 0.00 85 1020.7
20260902095719 62 77 1.0 2.0 0.00 0.02 0.00 86 1020.7
20260902094719 62 46 2.0 7.0 0.00 0.02 0.00 86 1020.8
20260902093719 62 26 0.0 3.0 0.00 0.02 0.00 86 1020.8
20260902092719 61 25 1.0 3.0 0.00 0.02 0.00 86 1020.9
20260902091719 61 0 1.0 3.0 0.00 0.02 0.00 86 1020.8
20260902090719 60 56 3.0 9.0 0.00 0.02 0.00 86 1020.8
20260902085719 59 47 2.0 6.0 0.00 0.02 0.00 86 1020.7
20260902084719 59 84 2.0 9.0 0.00 0.02 0.00 86 1020.6
20260902083719 59 48 2.0 4.0 0.00 0.02 0.00 85 1020.6
20260902082719 58 37 1.0 3.0 0.00 0.02 0.00 83 1020.7
20260902081719 57 55 1.0 3.0 0.00 0.02 0.00 83 1020.7
20260902080719 57 72 0.0 3.0 0.00 0.02 0.00 82 1020.7
20260902075719 57 41 0.0 1.0 0.00 0.02 0.00 82 1020.7
20260902074719 56 41 1.0 4.0 0.00 0.02 0.00 81 1020.8
20260902073719 56 89 0.0 3.0 0.00 0.02 0.00 81 1020.7
20260902072719 56 86 0.0 2.0 0.00 0.02 0.00 80 1020.7
20260902071719 56 92 0.0 2.0 0.00 0.02 0.00 80 1020.6
20260902070719 56 57 0.0 3.0 0.00 0.02 0.00 80 1020.6
20260902065719 55 106 1.0 5.0 0.00 0.02 0.00 80 1020.6
20260902064719 55 84 0.0 1.0 0.00 0.02 0.00 79 1020.6
20260902063719 54 61 0.0 2.0 0.00 0.02 0.00 80 1020.7